SCP
0 0 0 0 0 0 0 0 0 0 0 0 0 0 0 0 0 0 0 0 0 0 0 0 0 0 0 0 0 0 0 0 0 0 0 0 0 0 0 0 0 0 0
0 0 0 0 0 0 0 0 0 0 0 0 0 0 0 0 0 0 0 0 0 0 0 0 0 0 0 0 0 0 0 0 0 0 0 0 0 0 0 0 0 0 0
0 0 0 0 0 0 0 0 0 0 0 0 0 0 0 0 0 0 0 0 0 0 0 0 0 0 0 0 0 0 0 0 0 0 0 0 0 0 0 0 0 0 0
0 0 0 0 0 0 0 0 0 0 0 0 0 0 0 0 0 0 0 0 0 0 0 0 0 0 0 0 0 0 0 0 0 0 0 0 0 0 0 0 0 0 0
0 0 0 0 0 0 0 0 0 0 0 0 0 0 0 0 0 0 0 0 0 0 0 0 0 0 0 0 0 0 0 0 0 0 0 0 0 0 0 0 0 0 0
0 0 0 0 0 0 0 0 0 0 0 0 0 0 0 0 0 0 0 0 0 0 0 0 0 0 0 0 0 0 0 0 0 0 0 0 0 0 0 0 0 0 0
1 0 0 0 0 0 0 0 0 0 0 0 0 0 0 0 0 0 0 0 0 0 0 0 0 0 0 0 0 0 0 0 0 0 0 0 0 0 0 0 0 0 0
1 1 0 0 0 0 0 0 0 0 0 0 1 0 0 0 0 0 0 0 0 0 0 0 0 0 0 0 0 0 0 0 0 0 0 0 0 0 0 0 0 0 0
1 1 1 0 0 0 0 0 0 0 0 0 0 0 0 0 0 0 0 0 0 0 0 0 0 0 0 0 0 0 0 0 0 0 0 0 0 0 0 0 0 0 0
1 0 0 0 0 0 0 0 0 0 0 0 0 0 0 0 0 0 0 0 0 0 0 0 0 0 0 0 0 0 0 0 0 0 0 0 0 0 0 0 0 0 0
1 1 1 0 0 0 0 0 0 0 0 0 0 0 0 0 0 0 0 0 0 0 0 0 0 0 0 0 0 0 0 0 0 0 0 0 0 0 0 0 0 0 0
1 1 1 0 0 0 0 0 0 0 0 0 0 0 0 0 0 0 0 0 0 0 0 0 0 0 0 0 0 0 0 0 0 0 0 0 0 0 0 0 0 0 0
1 1 1 1 1 0 0 0 0 0 0 0 0 0 0 0 0 0 0 0 0 0 0 0 0 0 0 0 0 0 0 0 0 0 0 0 0 0 0 0 0 0 0
1 1 1 1 1 0 0 0 0 0 0 0 0 0 0 0 0 0 0 0 0 0 0 0 0 0 0 0 0 0 0 0 0 0 0 0 0 0 0 0 0 0 0
0 0 1 1 1 0 0 0 0 0 0 0 0 0 0 0 0 0 0 0 0 0 0 0 0 0 0 0 0 0 0 0 0 0 0 0 0 0 0 0 0 0 0
0 0 1 1 0 0 0 0 0 0 0 0 0 0 0 0 0 0 0 0 0 0 0 0 0 0 0 0 0 0 0 0 0 0 0 0 0 0 0 0 0 0 0
0 0 1 0 0 0 0 0 0 0 0 0 0 0 0 0 0 0 0 0 0 0 0 0 0 0 0 0 0 0 0 0 0 0 0 0 0 0 0 0 0 0 -0
0 0 1 1 0 0 0 0 0 0 0 0 0 0 0 0 0 0 0 0 0 0 0 0 0 0 0 0 0 0 0 0 0 0 0 0 0 0 0 0 0 0 0
0 0 0 0 0 0 0 0 0 0 0 0 0 0 0 0 0 -0 0 0 0 0 0 0 0 0 0 0 0 0 0 0 0 0 0 0 0 0 0 0 0 0 0
0 0 0 0 0 0 0 0 0 0 0 0 -0 0 0 0 -0 0 0 0 0 0 0 0 0 0 0 0 0 0 0 0 0 0 0 0 0 0 0 0 0 -0 -0
0 0 0 0 0 0 0 0 0 0 0 0 0 0 0 0 0 0 0 0 0 -0 0 0 0 0 0 0 0 0 0 0 0 0 0 0 0 0 0 0 0 -0 -0
0 0 0 0 0 0 0 0 0 0 0 0 0 0 0 0 0 0 -0 -0 -0 -0 -0 0 0 0 0 0 0 0 0 0 0 0 0 0 0 0 0 0 0 -0 -0
0 0 0 0 0 0 0 0 0 0 0 0 0 0 0 0 0 0 -0 -0 -0 -0 -0 0 0 0 0 0 0 0 0 0 0 0 0 0 0 0 0 0 -0 -0 -0
0 0 0 0 0 0 0 0 0 0 0 0 0 0 0 -0 -0 -0 -0 -0 -0 -0 -0 0 0 0 0 0 0 0 0 0 0 0 0 0 0 0 0 0 -0 -0 -0
0 0 0 0 0 0 0 0 0 0 0 0 0 -0 -0 -0 -0 -0 -0 -0 -0 -0 -0 -0 0 0 0 0 0 0 0 0 0 0 0 0 0 0 0 0 0 0 0
0 0 0 0 0 0 0 0 0 0 0 0 0 -0 -0 -0 -0 0 0 -0 -0 0 -0 -0 -0 -0 0 0 0 0 0 0 0 0 0 0 0 0 0 0 0 -0 -0
Wind_Speed_500mb
54 52 53 51 49 44 41 38 34 30 27 26 27 25 17 13 11 9 9 13 13 12 6 9 11 14 22 26 27 27 31 35 38 45 52 58 61 60 55 49 43 41 42
58 56 56 54 51 47 43 40 36 31 27 26 28 27 23 18 15 13 12 16 11 6 6 9 10 13 20 23 23 29 34 44 48 53 59 63 61 54 52 46 43 43 41
61 59 58 57 52 48 44 42 41 37 32 27 28 27 31 21 16 18 17 16 10 6 6 7 11 16 18 19 23 33 42 46 50 56 61 60 55 53 46 45 45 46 45
63 63 61 58 50 48 43 41 46 41 36 32 27 22 24 22 15 20 19 13 8 4 10 9 12 13 15 12 18 35 44 51 57 62 63 57 54 49 49 52 46 43 46
66 67 66 61 53 46 44 39 41 39 36 31 24 18 24 23 23 23 17 12 9 9 17 12 16 16 14 20 27 33 38 52 60 62 58 48 45 50 51 50 45 42 43
63 69 70 66 60 51 48 43 40 39 36 28 24 24 30 27 26 21 15 13 11 12 18 20 22 20 22 22 26 29 40 52 59 50 38 48 48 53 54 51 45 42 43
62 60 70 73 67 62 54 51 46 44 41 35 31 30 24 26 24 22 17 15 15 15 18 23 25 21 21 22 25 36 46 53 55 33 40 48 51 54 54 47 38 40 40
75 67 66 74 75 68 60 59 52 52 52 48 45 36 28 22 27 21 19 14 17 18 19 22 23 20 20 22 32 42 53 54 48 38 43 49 50 53 50 44 37 40 40
78 84 76 76 73 75 67 65 60 59 63 56 48 33 18 14 26 19 16 17 18 18 22 19 20 19 18 24 33 44 46 47 41 40 44 48 49 52 49 42 39 42 43
78 86 87 84 84 78 75 73 63 65 64 60 55 52 32 26 22 21 24 23 21 19 20 17 17 16 18 27 33 43 44 41 40 40 49 53 51 51 47 43 41 43 45
67 76 88 84 83 78 83 74 73 73 72 62 65 59 62 32 29 20 31 34 29 22 17 14 14 12 19 25 35 43 42 36 38 43 52 61 52 47 45 44 44 46 46
67 76 74 88 85 88 92 82 78 73 72 61 63 58 60 55 41 28 22 41 35 24 19 16 11 10 18 26 36 40 37 35 39 45 57 56 49 46 45 44 45 45 45
70 67 69 72 78 92 93 96 78 71 68 63 61 62 63 58 46 38 32 48 43 34 23 17 10 14 19 29 37 39 37 37 39 51 53 48 50 51 49 48 45 46 42
57 56 53 65 66 80 87 54 64 59 69 64 63 63 59 60 49 35 31 44 41 33 28 18 12 17 20 29 37 35 35 35 45 48 47 49 48 50 48 45 43 44 43
47 50 53 59 54 70 67 60 65 66 65 61 57 62 61 52 38 31 31 33 41 36 31 25 20 15 21 29 32 32 35 38 42 38 43 50 50 49 50 58 57 51 44
44 45 46 52 54 66 69 69 90 86 74 64 64 57 49 40 32 30 33 32 42 35 33 29 23 14 18 24 22 30 31 33 25 33 43 51 58 49 44 46 56 61 46
37 38 40 44 43 51 67 81 77 77 82 70 51 30 27 27 26 29 31 37 43 30 24 25 16 7 13 17 20 23 26 23 25 34 38 50 67 69 49 46 51 58 56
33 34 34 34 38 54 61 74 72 75 70 67 42 27 28 31 27 30 29 36 30 24 23 19 14 1 7 15 20 21 21 26 29 35 39 45 56 69 73 52 53 56 56
32 30 34 34 39 46 63 42 88 68 48 55 52 45 29 27 35 32 30 30 33 23 18 13 15 12 13 18 19 21 22 25 27 30 39 51 52 59 78 62 57 59 59
28 35 33 30 36 53 65 55 53 33 48 60 57 55 38 39 41 34 32 28 27 22 20 17 19 24 20 24 25 26 26 24 23 28 36 39 50 53 72 65 57 59 60
31 40 46 50 48 56 61 66 76 76 76 67 60 47 46 46 40 29 17 27 22 22 23 23 27 29 29 29 30 31 28 28 30 35 33 39 50 53 74 70 56 57 60
38 41 49 50 50 58 56 66 87 81 68 70 66 64 61 52 38 31 32 28 23 18 23 26 33 31 37 33 32 29 29 28 38 31 31 40 46 59 69 79 60 52 57
38 44 48 56 61 66 57 67 75 78 72 70 69 72 69 48 47 47 42 40 38 36 32 27 36 39 38 34 26 30 33 31 36 38 31 36 44 54 58 63 63 52 55
42 46 53 59 63 65 70 78 84 81 78 79 80 74 57 53 47 45 50 48 43 42 39 38 39 46 40 37 32 31 32 38 40 40 42 46 38 52 65 69 57 51 53
43 57 58 58 68 72 83 87 82 84 85 82 74 58 53 54 54 49 45 47 47 48 46 41 45 44 42 40 37 28 35 36 48 42 45 48 47 38 59 72 65 49 49
39 50 57 59 50 54 67 78 80 87 91 78 68 59 55 59 51 49 41 44 47 48 42 43 45 45 41 40 35 38 41 48 45 45 46 47 53 55 42 70 72 54 46
Wind_Direction_500mb
226 226 227 226 228 227 228 229 228 226 222 220 226 220 236 239 249 239 259 278 248 266 328 333 353 359 355 351 356 354 340 338 335 337 337 334 333 331 329 329 331 330 327
230 232 232 230 230 230 230 229 229 228 231 227 211 220 232 238 254 245 233 255 263 255 299 319 330 342 343 344 343 342 342 334 334 337 336 337 336 334 333 333 332 328 323
234 233 237 235 234 233 232 230 225 222 217 214 212 227 230 236 250 228 227 238 272 298 273 305 316 326 335 337 326 328 339 341 340 338 339 341 342 341 343 338 332 330 330
240 239 239 239 236 232 227 231 223 222 214 218 218 235 225 241 240 214 223 233 277 271 222 265 294 308 317 307 317 336 342 345 341 341 343 343 347 351 346 341 332 325 323
243 243 243 241 236 231 223 227 214 209 209 212 226 243 234 248 246 217 229 230 260 231 223 256 273 280 287 298 323 337 341 345 341 340 343 355 356 350 345 338 336 329 329
245 243 244 242 235 228 218 216 213 211 216 220 231 233 241 245 212 221 239 229 232 214 226 244 262 281 295 310 327 336 344 343 338 342 354 355 354 351 346 343 343 341 337
247 247 244 243 234 227 218 216 222 224 222 215 218 221 204 198 217 215 215 224 220 217 235 254 261 279 292 311 333 338 340 339 336 351 349 353 354 351 345 340 343 337 340
251 245 247 244 238 230 223 222 225 231 220 213 215 210 183 190 205 202 213 227 224 227 243 248 256 264 288 317 332 337 337 334 333 345 344 351 351 348 343 343 338 339 338
256 248 244 245 244 232 228 223 227 227 218 215 221 209 176 195 189 193 206 213 220 233 247 235 244 268 295 319 328 334 330 332 341 343 343 349 350 348 348 349 344 342 342
253 253 246 244 244 237 229 226 227 223 219 232 223 223 215 220 177 180 192 199 201 215 216 223 247 273 304 319 332 330 339 341 341 340 344 347 349 350 351 353 345 342 339
259 253 251 249 238 241 232 228 224 223 228 240 225 221 227 233 232 186 187 188 194 193 208 226 251 281 305 322 334 340 347 341 340 343 346 345 349 353 351 347 342 340 340
268 257 251 247 239 238 233 229 224 225 232 236 227 230 231 234 224 223 196 189 199 184 199 205 227 277 305 330 335 341 345 341 343 346 346 348 353 351 349 346 348 348 347
269 260 249 249 246 235 234 226 220 226 233 234 229 234 238 240 244 244 235 195 185 173 172 198 220 276 308 325 338 342 345 346 350 351 358 4 6 5 4 3 3 358 355
271 262 257 248 252 243 228 238 212 220 231 234 234 235 238 237 240 235 239 209 176 181 182 205 230 272 305 329 336 340 350 355 357 13 24 25 22 16 12 9 3 352 357
265 263 258 243 248 232 256 256 230 230 230 230 232 231 233 237 228 226 245 243 224 190 187 204 236 280 311 329 337 347 350 1 14 34 20 20 19 16 16 18 13 6 359
266 261 248 244 244 231 212 202 209 218 227 226 224 229 234 232 224 223 236 238 231 233 194 209 221 259 311 332 344 350 358 8 44 21 20 30 27 21 13 11 9 3 4
259 250 239 231 237 233 205 209 209 218 220 205 213 214 229 229 224 217 209 217 219 231 227 193 207 256 317 346 360 2 6 39 38 30 34 40 35 27 21 19 13 6 7
256 241 233 224 222 201 216 221 224 208 195 182 184 199 223 228 217 203 201 206 214 224 235 194 173 146 7 24 23 25 56 65 44 50 38 30 25 23 23 24 16 16 12
248 237 224 218 200 214 214 199 209 187 169 176 179 185 210 221 206 187 181 178 182 180 177 153 124 96 74 59 48 61 79 57 55 50 34 30 26 18 21 24 20 19 19
230 222 218 208 192 169 171 171 170 180 189 181 183 178 201 192 193 168 162 173 177 156 151 123 103 108 93 80 70 73 65 63 50 34 39 35 25 22 18 24 24 20 22
228 219 208 200 194 193 190 193 176 174 173 173 174 182 171 182 170 159 175 166 149 138 130 115 115 107 96 87 76 68 64 68 52 44 43 36 30 25 20 27 30 25 24
226 226 210 201 194 190 186 180 185 176 174 174 168 164 165 163 157 157 153 134 121 111 125 120 115 107 99 90 86 70 66 59 51 50 45 42 32 29 22 19 27 27 26
219 212 205 197 189 178 173 174 176 174 174 171 167 162 158 155 161 159 147 138 124 120 108 107 106 102 101 89 77 60 57 59 49 43 52 45 39 34 27 20 20 27 27
211 199 192 189 186 182 172 172 173 173 170 163 162 161 156 158 162 154 142 131 120 113 109 107 104 105 97 87 77 70 69 63 61 53 52 37 38 37 33 29 26 28 31
209 193 185 186 185 186 178 177 174 168 160 158 156 161 163 158 153 154 144 133 121 112 109 111 109 104 98 92 85 76 59 59 60 58 52 44 35 40 34 31 33 31 33
201 187 173 171 170 173 171 169 172 163 158 159 159 155 154 148 153 148 143 132 118 109 110 111 111 108 104 97 83 67 59 54 62 56 50 48 39 42 42 39 37 38 40
Wind_Speed_850mb
54 52 53 51 49 44 41 38 34 30 27 26 27 25 17 13 11 9 9 13 13 12 6 9 11 14 22 26 27 27 31 35 38 45 52 58 61 60 55 49 43 41 42
58 56 56 54 51 47 43 40 36 31 27 26 28 27 23 18 15 13 12 16 11 6 6 9 10 13 20 23 23 29 34 44 48 53 59 63 61 54 52 46 43 43 41
61 59 58 57 52 48 44 42 41 37 32 27 28 27 31 21 16 18 17 16 10 6 6 7 11 16 18 19 23 33 42 46 50 56 61 60 55 53 46 45 45 46 45
63 63 61 58 50 48 43 41 46 41 36 32 27 22 24 22 15 20 19 13 8 4 10 9 12 13 15 12 18 35 44 51 57 62 63 57 54 49 49 52 46 43 46
66 67 66 61 53 46 44 39 41 39 36 31 24 18 24 23 23 23 17 12 9 9 17 12 16 16 14 20 27 33 38 52 60 62 58 48 45 50 51 50 45 42 43
63 69 70 66 60 51 48 43 40 39 36 28 24 24 30 27 26 21 15 13 11 12 18 20 22 20 22 22 26 29 40 52 59 50 38 48 48 53 54 51 45 42 43
62 60 70 73 67 62 54 51 46 44 41 35 31 30 24 26 24 22 17 15 15 15 18 23 25 21 21 22 25 36 46 53 55 33 40 48 51 54 54 47 38 40 40
75 67 66 74 75 68 60 59 52 52 52 48 45 36 28 22 27 21 19 14 17 18 19 22 23 20 20 22 32 42 53 54 48 38 43 49 50 53 50 44 37 40 40
78 84 76 76 73 75 67 65 60 59 63 56 48 33 18 14 26 19 16 17 18 18 22 19 20 19 18 24 33 44 46 47 41 40 44 48 49 52 49 42 39 42 43
78 86 87 84 84 78 75 73 63 65 64 60 55 52 32 26 22 21 24 23 21 19 20 17 17 16 18 27 33 43 44 41 40 40 49 53 51 51 47 43 41 43 45
67 76 88 84 83 78 83 74 73 73 72 62 65 59 62 32 29 20 31 34 29 22 17 14 14 12 19 25 35 43 42 36 38 43 52 61 52 47 45 44 44 46 46
67 76 74 88 85 88 92 82 78 73 72 61 63 58 60 55 41 28 22 41 35 24 19 16 11 10 18 26 36 40 37 35 39 45 57 56 49 46 45 44 45 45 45
70 67 69 72 78 92 93 96 78 71 68 63 61 62 63 58 46 38 32 48 43 34 23 17 10 14 19 29 37 39 37 37 39 51 53 48 50 51 49 48 45 46 42
57 56 53 65 66 80 87 54 64 59 69 64 63 63 59 60 49 35 31 44 41 33 28 18 12 17 20 29 37 35 35 35 45 48 47 49 48 50 48 45 43 44 43
47 50 53 59 54 70 67 60 65 66 65 61 57 62 61 52 38 31 31 33 41 36 31 25 20 15 21 29 32 32 35 38 42 38 43 50 50 49 50 58 57 51 44
44 45 46 52 54 66 69 69 90 86 74 64 64 57 49 40 32 30 33 32 42 35 33 29 23 14 18 24 22 30 31 33 25 33 43 51 58 49 44 46 56 61 46
37 38 40 44 43 51 67 81 77 77 82 70 51 30 27 27 26 29 31 37 43 30 24 25 16 7 13 17 20 23 26 23 25 34 38 50 67 69 49 46 51 58 56
33 34 34 34 38 54 61 74 72 75 70 67 42 27 28 31 27 30 29 36 30 24 23 19 14 1 7 15 20 21 21 26 29 35 39 45 56 69 73 52 53 56 56
32 30 34 34 39 46 63 42 88 68 48 55 52 45 29 27 35 32 30 30 33 23 18 13 15 12 13 18 19 21 22 25 27 30 39 51 52 59 78 62 57 59 59
28 35 33 30 36 53 65 55 53 33 48 60 57 55 38 39 41 34 32 28 27 22 20 17 19 24 20 24 25 26 26 24 23 28 36 39 50 53 72 65 57 59 60
31 40 46 50 48 56 61 66 76 76 76 67 60 47 46 46 40 29 17 27 22 22 23 23 27 29 29 29 30 31 28 28 30 35 33 39 50 53 74 70 56 57 60
38 41 49 50 50 58 56 66 87 81 68 70 66 64 61 52 38 31 32 28 23 18 23 26 33 31 37 33 32 29 29 28 38 31 31 40 46 59 69 79 60 52 57
38 44 48 56 61 66 57 67 75 78 72 70 69 72 69 48 47 47 42 40 38 36 32 27 36 39 38 34 26 30 33 31 36 38 31 36 44 54 58 63 63 52 55
42 46 53 59 63 65 70 78 84 81 78 79 80 74 57 53 47 45 50 48 43 42 39 38 39 46 40 37 32 31 32 38 40 40 42 46 38 52 65 69 57 51 53
43 57 58 58 68 72 83 87 82 84 85 82 74 58 53 54 54 49 45 47 47 48 46 41 45 44 42 40 37 28 35 36 48 42 45 48 47 38 59 72 65 49 49
39 50 57 59 50 54 67 78 80 87 91 78 68 59 55 59 51 49 41 44 47 48 42 43 45 45 41 40 35 38 41 48 45 45 46 47 53 55 42 70 72 54 46
Wind_Direction_850mb
226 226 227 226 228 227 228 229 228 226 222 220 226 220 236 239 249 239 259 278 248 266 328 333 353 359 355 351 356 354 340 338 335 337 337 334 333 331 329 329 331 330 327
230 232 232 230 230 230 230 229 229 228 231 227 211 220 232 238 254 245 233 255 263 255 299 319 330 342 343 344 343 342 342 334 334 337 336 337 336 334 333 333 332 328 323
234 233 237 235 234 233 232 230 225 222 217 214 212 227 230 236 250 228 227 238 272 298 273 305 316 326 335 337 326 328 339 341 340 338 339 341 342 341 343 338 332 330 330
240 239 239 239 236 232 227 231 223 222 214 218 218 235 225 241 240 214 223 233 277 271 222 265 294 308 317 307 317 336 342 345 341 341 343 343 347 351 346 341 332 325 323
243 243 243 241 236 231 223 227 214 209 209 212 226 243 234 248 246 217 229 230 260 231 223 256 273 280 287 298 323 337 341 345 341 340 343 355 356 350 345 338 336 329 329
245 243 244 242 235 228 218 216 213 211 216 220 231 233 241 245 212 221 239 229 232 214 226 244 262 281 295 310 327 336 344 343 338 342 354 355 354 351 346 343 343 341 337
247 247 244 243 234 227 218 216 222 224 222 215 218 221 204 198 217 215 215 224 220 217 235 254 261 279 292 311 333 338 340 339 336 351 349 353 354 351 345 340 343 337 340
251 245 247 244 238 230 223 222 225 231 220 213 215 210 183 190 205 202 213 227 224 227 243 248 256 264 288 317 332 337 337 334 333 345 344 351 351 348 343 343 338 339 338
256 248 244 245 244 232 228 223 227 227 218 215 221 209 176 195 189 193 206 213 220 233 247 235 244 268 295 319 328 334 330 332 341 343 343 349 350 348 348 349 344 342 342
253 253 246 244 244 237 229 226 227 223 219 232 223 223 215 220 177 180 192 199 201 215 216 223 247 273 304 319 332 330 339 341 341 340 344 347 349 350 351 353 345 342 339
259 253 251 249 238 241 232 228 224 223 228 240 225 221 227 233 232 186 187 188 194 193 208 226 251 281 305 322 334 340 347 341 340 343 346 345 349 353 351 347 342 340 340
268 257 251 247 239 238 233 229 224 225 232 236 227 230 231 234 224 223 196 189 199 184 199 205 227 277 305 330 335 341 345 341 343 346 346 348 353 351 349 346 348 348 347
269 260 249 249 246 235 234 226 220 226 233 234 229 234 238 240 244 244 235 195 185 173 172 198 220 276 308 325 338 342 345 346 350 351 358 4 6 5 4 3 3 358 355
271 262 257 248 252 243 228 238 212 220 231 234 234 235 238 237 240 235 239 209 176 181 182 205 230 272 305 329 336 340 350 355 357 13 24 25 22 16 12 9 3 352 357
265 263 258 243 248 232 256 256 230 230 230 230 232 231 233 237 228 226 245 243 224 190 187 204 236 280 311 329 337 347 350 1 14 34 20 20 19 16 16 18 13 6 359
266 261 248 244 244 231 212 202 209 218 227 226 224 229 234 232 224 223 236 238 231 233 194 209 221 259 311 332 344 350 358 8 44 21 20 30 27 21 13 11 9 3 4
259 250 239 231 237 233 205 209 209 218 220 205 213 214 229 229 224 217 209 217 219 231 227 193 207 256 317 346 360 2 6 39 38 30 34 40 35 27 21 19 13 6 7
256 241 233 224 222 201 216 221 224 208 195 182 184 199 223 228 217 203 201 206 214 224 235 194 173 146 7 24 23 25 56 65 44 50 38 30 25 23 23 24 16 16 12
248 237 224 218 200 214 214 199 209 187 169 176 179 185 210 221 206 187 181 178 182 180 177 153 124 96 74 59 48 61 79 57 55 50 34 30 26 18 21 24 20 19 19
230 222 218 208 192 169 171 171 170 180 189 181 183 178 201 192 193 168 162 173 177 156 151 123 103 108 93 80 70 73 65 63 50 34 39 35 25 22 18 24 24 20 22
228 219 208 200 194 193 190 193 176 174 173 173 174 182 171 182 170 159 175 166 149 138 130 115 115 107 96 87 76 68 64 68 52 44 43 36 30 25 20 27 30 25 24
226 226 210 201 194 190 186 180 185 176 174 174 168 164 165 163 157 157 153 134 121 111 125 120 115 107 99 90 86 70 66 59 51 50 45 42 32 29 22 19 27 27 26
219 212 205 197 189 178 173 174 176 174 174 171 167 162 158 155 161 159 147 138 124 120 108 107 106 102 101 89 77 60 57 59 49 43 52 45 39 34 27 20 20 27 27
211 199 192 189 186 182 172 172 173 173 170 163 162 161 156 158 162 154 142 131 120 113 109 107 104 105 97 87 77 70 69 63 61 53 52 37 38 37 33 29 26 28 31
209 193 185 186 185 186 178 177 174 168 160 158 156 161 163 158 153 154 144 133 121 112 109 111 109 104 98 92 85 76 59 59 60 58 52 44 35 40 34 31 33 31 33
201 187 173 171 170 173 171 169 172 163 158 159 159 155 154 148 153 148 143 132 118 109 110 111 111 108 104 97 83 67 59 54 62 56 50 48 39 42 42 39 37 38 40